SMAP

Last updated on Tue Oct 15 2024 00:02:24 GMT+0000 (Coordinated Universal Time)

1 40376U 15003A 24288.54970671 .00001917 00000+0 37998-3 0 9998 2 40376 98.1310 293.2657 0001266 95.5139 264.6208 14.63367003518314
UTC large
Height (km)
Speed (km/s)
/
Latitude / Longitude
Inclination (degrees)
Orbital Period (minutes)
Azimuth
Elevation
Range (km)
Doppler Factor

Next 0 passes for location: London (51.5072 / 0.1276)

Sorry there are no passes over London.